Retour au catalogue

THORAD AGENA D DEB

ActifLEO
NORAD 4951·DEBRIS·🇺🇸 United States

Lancé Apr 8, 1970 depuis Vandenberg Space Force Base

Loading…

Prochains Passages (prochaines 24 heures)

TLE

FraisSource: Space-Track

Époque: Sep 14, 2026, 23:01 UTC

1 04951U 70025GM  26257.95959330  .00000107  00000-0  20426-3 0  9993
2 04951 100.1894 257.5924 0016791 261.6886 126.5758 13.61281792795059

Suivez THORAD AGENA D DEB en temps réel avec AllMySat

Download on the App Store